| time (UTC) | temp C | wind direction | speed KPH | gust KPH | rain 1hr cm | rain 24hr cm | rain mn cm | humidity % | barometer mb |
| 20260504172632 | 17 | 234 | 1.6 | 4.8 | 0.05 | 0.38 | 0.30 | 93 | 1010.8 |
| 20260504172110 | 17 | 179 | 1.6 | 3.2 | 0.05 | 0.38 | 0.30 | 93 | 1010.8 |
| 20260504171631 | 17 | 200 | 0.0 | 3.2 | 0.05 | 0.38 | 0.30 | 93 | 1010.7 |
| 20260504171219 | 17 | 219 | 0.0 | 3.2 | 0.05 | 0.38 | 0.30 | 93 | 1010.8 |
| 20260504170949 | 17 | 236 | 0.0 | 0.0 | 0.10 | 0.33 | 0.30 | 93 | 1010.9 |
| 20260504170945 | 17 | 236 | 0.0 | 0.0 | 0.05 | 0.38 | 0.30 | 93 | 1010.9 |
| 20260504170855 | 17 | 236 | 0.0 | 0.0 | 0.05 | 0.38 | 0.30 | 93 | 1010.8 |
| 20260504160343 | 17 | 197 | 1.6 | 3.2 | 0.10 | 0.33 | 0.23 | 91 | 1011.3 |
| 20260504151110 | 17 | 231 | 6.4 | 14.5 | 0.05 | 0.23 | 0.15 | 89 | 1011.2 |
| 20260504151022 | 17 | 230 | 8.0 | 14.5 | 0.05 | 0.23 | 0.15 | 91 | 1011.4 |
| 20260504150110 | 17 | 225 | 8.0 | 14.5 | 0.08 | 0.23 | 0.15 | 91 | 1011.5 |
| 20260504141110 | 18 | 197 | 3.2 | 8.0 | 0.05 | 0.15 | 0.08 | 91 | 1011.8 |
| 20260504141039 | 18 | 269 | 3.2 | 8.0 | 0.03 | 0.15 | 0.05 | 90 | 1011.9 |
| 20260504140819 | 18 | 246 | 4.8 | 8.0 | 0.05 | 0.15 | 0.05 | 91 | 1011.8 |
| 20260504130714 | 18 | 232 | 8.0 | 11.3 | 0.00 | 0.13 | 0.05 | 88 | 1011.9 |
| 20260504120317 | 18 | 214 | 4.8 | 12.9 | 0.03 | 0.08 | 0.03 | 89 | 1012.2 |
| 20260504120313 | 18 | 163 | 8.0 | 14.5 | 0.00 | 0.08 | 0.00 | 89 | 1012.2 |
| 20260504120120 | 18 | 231 | 3.2 | 12.9 | 0.05 | 0.13 | 0.05 | 89 | 1012.2 |
| 20260504110715 | 18 | 239 | 9.7 | 17.7 | 0.00 | 0.08 | 0.00 | 87 | 1012.3 |
| 20260504100141 | 19 | 155 | 6.4 | 14.5 | 0.00 | 0.08 | 0.00 | 82 | 1012.4 |
| 20260504081604 | 20 | 251 | 6.4 | 11.3 | 0.00 | 0.08 | 0.00 | 75 | 1012.3 |
| 20260504081542 | 20 | 216 | 4.8 | 11.3 | 0.00 | 0.08 | 0.00 | 74 | 1012.4 |
| 20260504080638 | 20 | 227 | 4.8 | 9.7 | 0.00 | 0.08 | 0.00 | 75 | 1012.5 |
| 20260504080428 | 19 | 193 | 4.8 | 9.7 | 0.00 | 0.08 | 0.00 | 76 | 1012.5 |
| 20260504070347 | 18 | 269 | 3.2 | 6.4 | 0.00 | 0.08 | 0.00 | 79 | 1012.9 |
| 20260504070251 | 18 | 252 | 3.2 | 8.0 | 0.00 | 0.08 | 0.00 | 79 | 1012.8 |
| 20260504060159 | 16 | 316 | 0.0 | 0.0 | 0.00 | 0.08 | 0.00 | 86 | 1013.0 |
| 20260504050608 | 16 | 316 | 0.0 | 0.0 | 0.00 | 0.08 | 0.00 | 87 | 1012.9 |
| 20260504050551 | 16 | 316 | 0.0 | 3.2 | 0.00 | 0.08 | 0.00 | 87 | 1013.0 |
| 20260504050546 | 16 | 316 | 0.0 | 3.2 | 0.00 | 0.08 | 0.00 | 87 | 1013.0 |
| 20260504050431 | 16 | 316 | 0.0 | 0.0 | 0.00 | 0.08 | 0.00 | 87 | 1013.0 |
| 20260504045858 | 16 | 316 | 0.0 | 0.0 | 0.00 | 0.08 | 0.00 | 87 | 1012.9 |
| 20260504044123 | 16 | 328 | 1.6 | 3.2 | 0.00 | 0.08 | 0.00 | 87 | 1012.9 |
| 20260504043606 | 16 | 328 | 1.6 | 3.2 | 0.00 | 0.08 | 0.00 | 87 | 1012.8 |
| 20260504043057 | 16 | 34 | 0.0 | 3.2 | 0.00 | 0.08 | 0.00 | 87 | 1012.9 |
| 20260504042556 | 16 | 331 | 0.0 | 1.6 | 0.00 | 0.08 | 0.00 | 87 | 1013.0 |
| 20260504042148 | 16 | 328 | 0.0 | 1.6 | 0.00 | 0.08 | 0.00 | 87 | 1013.0 |
| 20260504041826 | 16 | 326 | 0.0 | 0.0 | 0.00 | 0.08 | 0.00 | 87 | 1013.0 |
| 20260504041717 | 16 | 326 | 0.0 | 0.0 | 0.00 | 0.08 | 0.00 | 87 | 1013.1 |
| 20260504040556 | 16 | 326 | 0.0 | 0.0 | 0.00 | 0.08 | 0.00 | 87 | 1013.0 |
| 20260504040213 | 16 | 326 | 0.0 | 1.6 | 0.00 | 0.08 | 0.00 | 86 | 1013.1 |
| 20260504035714 | 16 | 326 | 0.0 | 1.6 | 0.00 | 0.08 | 0.00 | 86 | 1013.1 |
| 20260504035124 | 16 | 326 | 0.0 | 1.6 | 0.00 | 0.08 | 0.00 | 86 | 1013.1 |
| 20260504034705 | 16 | 323 | 0.0 | 3.2 | 0.00 | 0.08 | 0.00 | 86 | 1013.2 |
| 20260504034115 | 16 | 323 | 1.6 | 3.2 | 0.00 | 0.08 | 0.00 | 86 | 1013.2 |
| 20260504033659 | 16 | 7 | 1.6 | 3.2 | 0.00 | 0.08 | 0.00 | 86 | 1013.3 |
| 20260504033056 | 16 | 15 | 0.0 | 1.6 | 0.00 | 0.08 | 0.00 | 86 | 1013.4 |
| 20260504032651 | 16 | 340 | 0.0 | 1.6 | 0.00 | 0.08 | 0.00 | 86 | 1013.5 |
| 20260504032056 | 16 | 304 | 0.0 | 1.6 | 0.00 | 0.08 | 0.00 | 87 | 1013.4 |
| 20260504031644 | 16 | 304 | 0.0 | 1.6 | 0.00 | 0.08 | 0.00 | 87 | 1013.4 |
| 20260504031056 | 16 | 304 | 0.0 | 3.2 | 0.00 | 0.08 | 0.00 | 87 | 1013.5 |
| 20260504030638 | 16 | 304 | 0.0 | 3.2 | 0.00 | 0.08 | 0.00 | 88 | 1013.4 |
| 20260504030130 | 16 | 307 | 0.0 | 1.6 | 0.00 | 0.08 | 0.00 | 88 | 1013.4 |
| 20260504025556 | 16 | 51 | 0.0 | 0.0 | 0.00 | 0.08 | 0.00 | 88 | 1013.4 |
| 20260504025444 | 16 | 311 | 0.0 | 0.0 | 0.00 | 0.08 | 0.00 | 88 | 1013.2 |
| 20260504025248 | 16 | 51 | 0.0 | 1.6 | 0.00 | 0.08 | 0.00 | 88 | 1013.3 |
| 20260504024754 | 16 | 51 | 0.0 | 1.6 | 0.00 | 0.08 | 0.00 | 88 | 1013.2 |
| 20260504024255 | 16 | 311 | 0.0 | 0.0 | 0.00 | 0.08 | 0.00 | 88 | 1013.2 |
| 20260504023104 | 16 | 311 | 0.0 | 1.6 | 0.00 | 0.08 | 0.00 | 87 | 1013.2 |
| 20260504022601 | 16 | 311 | 0.0 | 1.6 | 0.00 | 0.08 | 0.00 | 87 | 1013.3 |
| 20260504022057 | 16 | 311 | 0.0 | 1.6 | 0.00 | 0.08 | 0.00 | 87 | 1013.3 |
| 20260504021556 | 16 | 311 | 0.0 | 3.2 | 0.00 | 0.08 | 0.00 | 87 | 1013.3 |
| 20260504021141 | 16 | 302 | 1.6 | 3.2 | 0.00 | 0.08 | 0.00 | 87 | 1013.3 |
| 20260504020735 | 16 | 304 | 0.0 | 3.2 | 0.00 | 0.08 | 0.00 | 87 | 1013.3 |
| 20260504020708 | 16 | 340 | 1.6 | 3.2 | 0.00 | 0.08 | 0.00 | 87 | 1013.3 |
| 20260504020341 | 16 | 305 | 0.0 | 1.6 | 0.00 | 0.08 | 0.00 | 87 | 1013.4 |
| 20260504015129 | 16 | 304 | 0.0 | 4.8 | 0.00 | 0.08 | 0.00 | 87 | 1013.4 |
| 20260504014755 | 16 | 313 | 1.6 | 4.8 | 0.00 | 0.08 | 0.00 | 87 | 1013.4 |
| 20260504014401 | 16 | 345 | 3.2 | 6.4 | 0.00 | 0.08 | 0.00 | 87 | 1013.6 |
| 20260504014208 | 16 | 311 | 0.0 | 3.2 | 0.00 | 0.08 | 0.00 | 87 | 1013.5 |
| 20260504013837 | 16 | 358 | 3.2 | 3.2 | 0.00 | 0.08 | 0.00 | 87 | 1013.5 |
| 20260504012056 | 16 | 356 | 4.8 | 6.4 | 0.00 | 0.08 | 0.00 | 87 | 1013.5 |
| 20260504011656 | 16 | 23 | 3.2 | 6.4 | 0.00 | 0.08 | 0.00 | 87 | 1013.6 |
| 20260504011057 | 16 | 323 | 3.2 | 6.4 | 0.00 | 0.08 | 0.00 | 87 | 1013.7 |
| 20260504010813 | 16 | 8 | 3.2 | 8.0 | 0.00 | 0.08 | 0.00 | 87 | 1013.7 |
| 20260504010721 | 16 | 331 | 3.2 | 6.4 | 0.00 | 0.08 | 0.00 | 87 | 1013.7 |
| 20260504010231 | 16 | 338 | 4.8 | 8.0 | 0.00 | 0.08 | 0.00 | 87 | 1013.6 |
| 20260504005101 | 16 | 334 | 4.8 | 8.0 | 0.00 | 0.08 | 0.00 | 86 | 1013.7 |
| 20260504004555 | 16 | 346 | 4.8 | 11.3 | 0.00 | 0.08 | 0.00 | 86 | 1013.8 |
| 20260504004114 | 16 | 290 | 6.4 | 11.3 | 0.00 | 0.08 | 0.00 | 86 | 1013.9 |
| 20260504003636 | 16 | 325 | 1.6 | 3.2 | 0.00 | 0.08 | 0.00 | 87 | 1013.9 |
| 20260504003229 | 16 | 329 | 3.2 | 4.8 | 0.00 | 0.08 | 0.00 | 87 | 1014.0 |
| 20260504003205 | 16 | 351 | 1.6 | 4.8 | 0.00 | 0.08 | 0.00 | 87 | 1014.0 |
| 20260504002117 | 16 | 339 | 3.2 | 4.8 | 0.00 | 0.08 | 0.00 | 89 | 1014.0 |
| 20260504002056 | 16 | 340 | 3.2 | 4.8 | 0.00 | 0.08 | 0.00 | 88 | 1014.0 |
| 20260504001215 | 16 | 340 | 3.2 | 4.8 | 0.00 | 0.08 | 0.00 | 89 | 1014.0 |
| 20260504000728 | 16 | 346 | 3.2 | 8.0 | 0.00 | 0.08 | 0.00 | 89 | 1014.0 |
| 20260504000401 | 16 | 30 | 4.8 | 8.0 | 0.00 | 0.08 | 0.00 | 89 | 1014.0 |
| 20260503235616 | 16 | 12 | 6.4 | 8.0 | 0.00 | 0.08 | 0.00 | 89 | 1014.1 |
| 20260503235247 | 16 | 32 | 6.4 | 8.0 | 0.00 | 0.08 | 0.00 | 89 | 1014.1 |
| 20260503234751 | 16 | 27 | 3.2 | 6.4 | 0.00 | 0.08 | 0.00 | 90 | 1014.2 |
| 20260503233553 | 16 | 25 | 3.2 | 6.4 | 0.00 | 0.08 | 0.00 | 90 | 1014.3 |
| 20260503233152 | 16 | 4 | 3.2 | 6.4 | 0.00 | 0.08 | 0.00 | 90 | 1014.3 |
| 20260503232556 | 16 | 22 | 4.8 | 6.4 | 0.00 | 0.08 | 0.00 | 90 | 1014.2 |
| 20260503232113 | 16 | 4 | 3.2 | 6.4 | 0.00 | 0.08 | 0.00 | 90 | 1014.3 |
| 20260503231553 | 16 | 346 | 3.2 | 6.4 | 0.00 | 0.08 | 0.00 | 90 | 1014.4 |
| 20260503231053 | 16 | 16 | 3.2 | 4.8 | 0.00 | 0.08 | 0.00 | 90 | 1014.4 |
| 20260503230606 | 16 | 3 | 3.2 | 4.8 | 0.00 | 0.08 | 0.00 | 90 | 1014.5 |
| 20260503230216 | 16 | 6 | 3.2 | 4.8 | 0.00 | 0.08 | 0.00 | 90 | 1014.5 |
| 20260503225841 | 16 | 359 | 3.2 | 6.4 | 0.00 | 0.08 | 0.00 | 90 | 1014.5 |
| 20260503225132 | 16 | 24 | 3.2 | 6.4 | 0.00 | 0.08 | 0.00 | 90 | 1014.5 |
| 20260503224654 | 16 | 5 | 3.2 | 6.4 | 0.00 | 0.08 | 0.00 | 91 | 1014.6 |
| 20260503224649 | 16 | 7 | 3.2 | 6.4 | 0.00 | 0.08 | 0.00 | 91 | 1014.7 |
| 20260503224627 | 16 | 15 | 3.2 | 6.4 | 0.00 | 0.08 | 0.00 | 90 | 1014.5 |
| 20260503223333 | 16 | 37 | 3.2 | 6.4 | 0.00 | 0.08 | 0.00 | 91 | 1014.7 |
| 20260503223144 | 16 | 25 | 1.6 | 3.2 | 0.00 | 0.08 | 0.00 | 91 | 1014.7 |
| 20260503222811 | 16 | 41 | 1.6 | 4.8 | 0.00 | 0.08 | 0.00 | 91 | 1014.7 |
| 20260503221658 | 16 | 40 | 3.2 | 6.4 | 0.00 | 0.08 | 0.00 | 91 | 1014.7 |
| 20260503221116 | 16 | 49 | 4.8 | 11.3 | 0.00 | 0.08 | 0.00 | 91 | 1014.6 |
| 20260503221013 | 16 | 51 | 8.0 | 11.3 | 0.00 | 0.08 | 0.00 | 91 | 1014.4 |
| 20260503220559 | 16 | 61 | 6.4 | 11.3 | 0.00 | 0.08 | 0.00 | 92 | 1014.5 |
| 20260503215645 | 16 | 29 | 4.8 | 11.3 | 0.00 | 0.08 | 0.08 | 92 | 1014.6 |
| 20260503215053 | 16 | 58 | 4.8 | 9.7 | 0.00 | 0.08 | 0.08 | 92 | 1014.6 |
| 20260503214604 | 16 | 50 | 4.8 | 6.4 | 0.00 | 0.08 | 0.08 | 91 | 1014.6 |
| 20260503214053 | 16 | 46 | 4.8 | 8.0 | 0.00 | 0.08 | 0.08 | 91 | 1014.6 |
| 20260503213553 | 16 | 30 | 6.4 | 8.0 | 0.00 | 0.08 | 0.08 | 91 | 1014.6 |
| 20260503213054 | 16 | 15 | 6.4 | 8.0 | 0.00 | 0.08 | 0.08 | 90 | 1014.7 |
| 20260503212632 | 16 | 355 | 3.2 | 8.0 | 0.00 | 0.08 | 0.08 | 90 | 1014.8 |
| 20260503212231 | 16 | 1 | 1.6 | 4.8 | 0.00 | 0.08 | 0.08 | 91 | 1015.0 |
| 20260503212204 | 16 | 351 | 4.8 | 4.8 | 0.00 | 0.08 | 0.08 | 91 | 1014.9 |
| 20260503211057 | 16 | 326 | 0.0 | 4.8 | 0.00 | 0.08 | 0.08 | 91 | 1015.0 |
| 20260503210615 | 16 | 349 | 3.2 | 6.4 | 0.00 | 0.08 | 0.08 | 91 | 1014.9 |
| 20260503210206 | 16 | 25 | 3.2 | 6.4 | 0.03 | 0.08 | 0.08 | 91 | 1014.9 |
| 20260503205611 | 16 | 29 | 1.6 | 8.0 | 0.03 | 0.05 | 0.08 | 90 | 1014.9 |
| 20260503205200 | 16 | 21 | 3.2 | 8.0 | 0.05 | 0.05 | 0.08 | 90 | 1014.9 |
| 20260503204606 | 16 | 3 | 4.8 | 8.0 | 0.05 | 0.05 | 0.08 | 90 | 1014.9 |
| 20260503204155 | 16 | 347 | 6.4 | 6.4 | 0.05 | 0.05 | 0.08 | 90 | 1015.0 |
| 20260503203554 | 16 | 23 | 4.8 | 6.4 | 0.05 | 0.05 | 0.08 | 90 | 1015.1 |
| 20260503203150 | 16 | 348 | 3.2 | 6.4 | 0.05 | 0.05 | 0.08 | 91 | 1015.0 |
| 20260503202557 | 16 | 17 | 3.2 | 6.4 | 0.08 | 0.05 | 0.08 | 91 | 1015.1 |
| 20260503202348 | 16 | 13 | 3.2 | 6.4 | 0.05 | 0.05 | 0.05 | 89 | 1015.0 |
| 20260503202344 | 16 | 20 | 3.2 | 8.0 | 0.08 | 0.05 | 0.08 | 91 | 1015.1 |
| 20260503202340 | 16 | 336 | 3.2 | 4.8 | 0.08 | 0.05 | 0.05 | 90 | 1015.0 |
| 20260503202309 | 16 | 18 | 4.8 | 6.4 | 0.08 | 0.05 | 0.08 | 91 | 1015.1 |
| 20260503201142 | 16 | 11 | 4.8 | 8.0 | 0.08 | 0.05 | 0.08 | 90 | 1015.0 |
| 20260503195553 | 16 | 358 | 3.2 | 8.0 | 0.05 | 0.00 | 0.05 | 89 | 1015.0 |
| 20260503195136 | 16 | 79 | 6.4 | 8.0 | 0.05 | 0.00 | 0.05 | 89 | 1014.9 |
| 20260503194755 | 16 | 56 | 1.6 | 8.0 | 0.03 | 0.00 | 0.03 | 88 | 1014.9 |
| 20260503194750 | 16 | 39 | 3.2 | 9.7 | 0.03 | 0.00 | 0.03 | 88 | 1014.8 |
| 20260503194723 | 16 | 81 | 0.0 | 4.8 | 0.03 | 0.00 | 0.03 | 88 | 1014.9 |
| 20260503193547 | 16 | 61 | 6.4 | 14.5 | 0.00 | 0.00 | 0.00 | 87 | 1014.7 |
| 20260503193318 | 16 | 54 | 4.8 | 9.7 | 0.03 | 0.00 | 0.03 | 87 | 1014.7 |
| 20260503192120 | 16 | 59 | 8.0 | 14.5 | 0.00 | 0.00 | 0.00 | 86 | 1014.5 |
| 20260503191704 | 17 | 58 | 11.3 | 14.5 | 0.00 | 0.00 | 0.00 | 85 | 1014.3 |
| 20260503191115 | 17 | 94 | 9.7 | 12.9 | 0.00 | 0.00 | 0.00 | 83 | 1014.3 |
| 20260503190657 | 17 | 58 | 6.4 | 9.7 | 0.00 | 0.00 | 0.00 | 83 | 1014.4 |
| 20260503190053 | 17 | 4 | 4.8 | 6.4 | 0.00 | 0.00 | 0.00 | 83 | 1014.6 |
| 20260503185651 | 17 | 42 | 4.8 | 6.4 | 0.00 | 0.00 | 0.00 | 83 | 1014.6 |
| 20260503185053 | 17 | 29 | 1.6 | 6.4 | 0.00 | 0.00 | 0.00 | 83 | 1014.6 |
| 20260503184645 | 17 | 32 | 1.6 | 9.7 | 0.00 | 0.00 | 0.00 | 83 | 1014.6 |
| 20260503184057 | 17 | 53 | 4.8 | 11.3 | 0.00 | 0.00 | 0.00 | 83 | 1014.6 |
| 20260503183623 | 17 | 48 | 6.4 | 11.3 | 0.00 | 0.00 | 0.00 | 83 | 1014.6 |
| 20260503183055 | 17 | 72 | 4.8 | 8.0 | 0.00 | 0.00 | 0.00 | 83 | 1014.6 |
| 20260503182554 | 17 | 68 | 6.4 | 8.0 | 0.00 | 0.00 | 0.00 | 83 | 1014.5 |
| 20260503182057 | 17 | 60 | 6.4 | 8.0 | 0.00 | 0.00 | 0.00 | 83 | 1014.5 |
| 20260503181633 | 17 | 358 | 6.4 | 9.7 | 0.00 | 0.00 | 0.00 | 83 | 1014.5 |
| 20260503181053 | 17 | 78 | 6.4 | 11.3 | 0.00 | 0.00 | 0.00 | 83 | 1014.5 |
| 20260503180628 | 17 | 50 | 4.8 | 14.5 | 0.00 | 0.00 | 0.00 | 84 | 1014.5 |
| 20260503180149 | 17 | 57 | 14.5 | 19.3 | 0.00 | 0.00 | 0.00 | 84 | 1014.3 |
| 20260503180130 | 17 | 68 | 11.3 | 17.7 | 0.00 | 0.00 | 0.00 | 84 | 1014.4 |
| 20260503175831 | 17 | 53 | 12.9 | 17.7 | 0.00 | 0.00 | 0.00 | 84 | 1014.3 |
| 20260503174616 | 17 | 63 | 14.5 | 19.3 | 0.00 | 0.00 | 0.00 | 84 | 1014.2 |
| 20260503174208 | 17 | 22 | 12.9 | 19.3 | 0.00 | 0.00 | 0.00 | 84 | 1014.2 |